Home   Weather   Krasnodar   Past weeks

Flag for Russia Past Weather in Krasnodar, Russia — Yesterday and Last 2 Weeks

45 °F


Feels Like: 38 °F
Forecast: 43 / 58 °F
Wind: 15 mph from East

Location: Krasnodar Airport

Current Time: Oct 22, 2016 at 10:10:09 AM

Latest Report: Oct 22, 2016 at 9:00 AM

Visibility: 10 mi

Pressure: 30.24 "Hg

Humidity: 76%

Dew Point: 37 °F

Location of KrasnodarLocation

Past Weather in Krasnodar — Graph


Krasnodar Temperature Yesterday

Maximum temperature yesterday: 61 °F (at 2:00 PM)
Minimum temperature yesterday: 36 °F (at 5:00 AM)
Average temperature yesterday: 48 °F

High & Low Weather Summary for the Past Weeks

High79 °F (Oct 8, 3:00 PM)100% (Oct 8, 6:30 AM)30.48 "Hg (Oct 8, 6:30 AM)
Low34 °F (Oct 17, 7:00 AM)43% (Oct 10, 2:30 PM)29.80 "Hg (Oct 8, 4:30 PM)
Average51 °F76%30.17 "Hg
* Reported Oct 7 9:00 AM — Oct 22 9:00 AM, Krasnodar, Weather by CustomWeather, © 2016

Note: Actual official high and low records may vary slightly from our data, if they occured in-between our weather recording intervals... More about our weather records


Krasnodar Weather History for the Previous 24 Hours

Scroll right to see more
Time TempWeatherWind HumidityBarometerVisibility
9:00 AM
Sat, Oct 22
45 °FSunny.15 mph76%30.24 "Hg10 mi
8:30 AM43 °FSunny.17 mph81%30.24 "Hg10 mi
8:00 AM41 °FSunny.15 mph87%30.24 "Hg10 mi
7:30 AM41 °FSunny.15 mph81%30.24 "Hg10 mi
7:00 AM39 °FSunny.15 mph87%30.24 "Hg10 mi
6:30 AM39 °FClear.15 mph87%30.24 "Hg10 mi
6:00 AM39 °FClear.15 mph87%30.24 "Hg10 mi
5:00 AM41 °FClear.15 mph81%30.24 "Hg10 mi
4:00 AM41 °FClear.15 mph87%30.24 "Hg10 mi
3:30 AM43 °FClear.15 mph81%30.24 "Hg10 mi
3:00 AM43 °FClear.15 mph81%30.24 "Hg10 mi
2:30 AM43 °FClear.13 mph81%30.24 "Hg10 mi
2:00 AM43 °FClear.13 mph81%30.24 "Hg10 mi
1:00 AM45 °FClear.13 mph81%30.24 "Hg10 mi
12:30 AM45 °FClear.15 mph81%30.24 "Hg10 mi
12:00 AM46 °FClear.15 mph76%30.24 "Hg10 mi
11:30 PM
Fri, Oct 21
46 °FClear.13 mph76%30.24 "Hg10 mi
11:00 PM46 °FClear.15 mph76%30.24 "Hg10 mi
10:30 PM48 °FClear.15 mph76%30.24 "Hg10 mi
10:00 PM48 °FClear.15 mph76%30.24 "Hg10 mi
9:30 PM48 °FClear.17 mph76%30.24 "Hg10 mi
9:00 PM50 °FClear.17 mph71%30.24 "Hg10 mi
8:30 PM50 °FClear.17 mph71%30.24 "Hg10 mi
8:00 PM50 °FClear.17 mph71%30.24 "Hg10 mi
7:30 PM52 °FClear.15 mph67%30.24 "Hg10 mi
7:00 PM52 °FClear.17 mph67%30.24 "Hg10 mi
6:30 PM52 °FClear.13 mph72%30.24 "Hg10 mi
6:00 PM54 °FClear.15 mph67%30.24 "Hg10 mi
5:30 PM55 °FClear.13 mph63%30.24 "Hg10 mi
5:00 PM57 °FSunny.13 mph59%30.24 "Hg10 mi
4:30 PM59 °FSunny.15 mph55%30.24 "Hg10 mi
4:00 PM59 °FSunny.17 mph55%30.24 "Hg10 mi
3:30 PM61 °FSunny.17 mph52%30.24 "Hg10 mi
3:00 PM61 °FPassing clouds.15 mph55%30.24 "HgN/A
2:30 PM61 °FPassing clouds.15 mph55%30.24 "HgN/A
2:00 PM61 °FPassing clouds.13 mph55%30.24 "HgN/A
1:30 PM59 °FPassing clouds.6 mph63%30.24 "HgN/A
1:00 PM57 °FPassing clouds.3 mph63%30.27 "HgN/A
12:30 PM55 °FPassing clouds.8 mph67%30.27 "HgN/A
12:00 PM52 °FPassing clouds.8 mph72%30.27 "HgN/A
11:00 AM46 °FScattered clouds.8 mph82%30.30 "Hg6 mi
10:00 AM43 °FPartly sunny.8 mph93%30.30 "Hg4 mi
Weather by CustomWeather, © 2016

See weather overviewHow to use our weather pages